| time (UTC) | temp C | wind direction | speed KPH | gust KPH | rain 1hr cm | rain 24hr cm | rain mn cm | humidity % | barometer mb |
| 20260906233519 | 35 | 133 | 1.6 | 11.3 | 0.00 | 0.00 | 0.00 | 20 | 1016.1 |
| 20260906233042 | 35 | 0 | 1.6 | 11.3 | 0.00 | 0.00 | 0.00 | 20 | 1016.2 |
| 20260906232521 | 35 | 177 | 4.8 | 11.3 | 0.00 | 0.00 | 0.00 | 20 | 1016.2 |
| 20260906232019 | 35 | 0 | 1.6 | 8.0 | 0.00 | 0.00 | 0.00 | 19 | 1016.2 |
| 20260906231541 | 35 | 0 | 0.0 | 8.0 | 0.00 | 0.00 | 0.00 | 20 | 1016.2 |
| 20260906231020 | 35 | 96 | 1.6 | 6.4 | 0.00 | 0.00 | 0.00 | 20 | 1016.2 |
| 20260906230520 | 35 | 275 | 3.2 | 8.0 | 0.00 | 0.00 | 0.00 | 19 | 1016.2 |
| 20260906230038 | 35 | 0 | 1.6 | 8.0 | 0.00 | 0.00 | 0.00 | 19 | 1016.2 |
| 20260906225519 | 35 | 146 | 1.6 | 9.7 | 0.00 | 0.00 | 0.00 | 18 | 1016.2 |
| 20260906225022 | 35 | 186 | 3.2 | 9.7 | 0.00 | 0.00 | 0.00 | 19 | 1016.2 |
| 20260906224549 | 35 | 158 | 1.6 | 6.4 | 0.00 | 0.00 | 0.00 | 21 | 1016.2 |
| 20260906224019 | 35 | 0 | 0.0 | 6.4 | 0.00 | 0.00 | 0.00 | 20 | 1016.2 |
| 20260906223519 | 35 | 154 | 0.0 | 12.9 | 0.00 | 0.00 | 0.00 | 19 | 1016.2 |
| 20260906223043 | 35 | 241 | 0.0 | 12.9 | 0.00 | 0.00 | 0.00 | 23 | 1016.3 |
| 20260906222518 | 35 | 121 | 3.2 | 11.3 | 0.00 | 0.00 | 0.00 | 19 | 1016.4 |
| 20260906222022 | 35 | 86 | 1.6 | 11.3 | 0.00 | 0.00 | 0.00 | 18 | 1016.4 |
| 20260906221545 | 35 | 167 | 1.6 | 11.3 | 0.00 | 0.00 | 0.00 | 19 | 1016.4 |
| 20260906221018 | 35 | 131 | 3.2 | 11.3 | 0.00 | 0.00 | 0.00 | 18 | 1016.5 |
| 20260906220518 | 36 | 103 | 1.6 | 9.7 | 0.00 | 0.00 | 0.00 | 19 | 1016.5 |
| 20260906220038 | 36 | 0 | 1.6 | 9.7 | 0.00 | 0.00 | 0.00 | 21 | 1016.5 |
| 20260906215520 | 36 | 159 | 1.6 | 9.7 | 0.00 | 0.00 | 0.00 | 19 | 1016.6 |
| 20260906215017 | 36 | 154 | 0.0 | 8.0 | 0.00 | 0.00 | 0.00 | 20 | 1016.7 |
| 20260906214545 | 36 | 155 | 1.6 | 8.0 | 0.00 | 0.00 | 0.00 | 18 | 1016.8 |
| 20260906214024 | 36 | 115 | 0.0 | 4.8 | 0.00 | 0.00 | 0.00 | 18 | 1016.9 |
| 20260906213520 | 36 | 32 | 0.0 | 6.4 | 0.00 | 0.00 | 0.00 | 19 | 1017.0 |
| 20260906213042 | 35 | 0 | 1.6 | 6.4 | 0.00 | 0.00 | 0.00 | 22 | 1017.2 |
| 20260906212519 | 35 | 284 | 1.6 | 9.7 | 0.00 | 0.00 | 0.00 | 18 | 1017.2 |
| 20260906212019 | 35 | 241 | 3.2 | 9.7 | 0.00 | 0.00 | 0.00 | 19 | 1017.3 |
| 20260906211547 | 35 | 246 | 1.6 | 9.7 | 0.00 | 0.00 | 0.00 | 18 | 1017.4 |
| 20260906211020 | 35 | 22 | 1.6 | 6.4 | 0.00 | 0.00 | 0.00 | 18 | 1017.4 |
| 20260906210524 | 35 | 283 | 1.6 | 6.4 | 0.00 | 0.00 | 0.00 | 18 | 1017.5 |
| 20260906210058 | 35 | 86 | 0.0 | 4.8 | 0.00 | 0.00 | 0.00 | 18 | 1017.6 |
| 20260906205521 | 35 | 0 | 0.0 | 6.4 | 0.00 | 0.00 | 0.00 | 22 | 1017.8 |
| 20260906205022 | 35 | 346 | 0.0 | 6.4 | 0.00 | 0.00 | 0.00 | 19 | 1017.9 |
| 20260906204543 | 35 | 0 | 1.6 | 14.5 | 0.00 | 0.00 | 0.00 | 20 | 1018.0 |
| 20260906204022 | 35 | 0 | 1.6 | 14.5 | 0.00 | 0.00 | 0.00 | 17 | 1018.2 |
| 20260906203519 | 35 | 259 | 1.6 | 11.3 | 0.00 | 0.00 | 0.00 | 18 | 1018.2 |
| 20260906203044 | 35 | 0 | 0.0 | 11.3 | 0.00 | 0.00 | 0.00 | 18 | 1018.2 |
| 20260906202519 | 35 | 220 | 0.0 | 6.4 | 0.00 | 0.00 | 0.00 | 18 | 1018.4 |
| 20260906202024 | 35 | 0 | 1.6 | 6.4 | 0.00 | 0.00 | 0.00 | 17 | 1018.4 |
| 20260906201541 | 35 | 240 | 1.6 | 6.4 | 0.00 | 0.00 | 0.00 | 17 | 1018.6 |
| 20260906201025 | 35 | 19 | 1.6 | 6.4 | 0.00 | 0.00 | 0.00 | 18 | 1018.5 |
| 20260906200524 | 35 | 0 | 0.0 | 6.4 | 0.00 | 0.00 | 0.00 | 19 | 1018.5 |
| 20260906200050 | 34 | 0 | 0.0 | 8.0 | 0.00 | 0.00 | 0.00 | 19 | 1018.6 |
| 20260906195523 | 35 | 0 | 0.0 | 8.0 | 0.00 | 0.00 | 0.00 | 18 | 1018.7 |
| 20260906195024 | 35 | 53 | 1.6 | 9.7 | 0.00 | 0.00 | 0.00 | 16 | 1018.8 |
| 20260906194543 | 35 | 0 | 0.0 | 9.7 | 0.00 | 0.00 | 0.00 | 18 | 1018.8 |
| 20260906194024 | 35 | 323 | 1.6 | 9.7 | 0.00 | 0.00 | 0.00 | 19 | 1018.9 |
| 20260906193524 | 35 | 351 | 0.0 | 6.4 | 0.00 | 0.00 | 0.00 | 18 | 1019.0 |
| 20260906193042 | 34 | 0 | 0.0 | 8.0 | 0.00 | 0.00 | 0.00 | 18 | 1018.9 |
| 20260906192518 | 34 | 0 | 1.6 | 9.7 | 0.00 | 0.00 | 0.00 | 21 | 1018.9 |
| 20260906192018 | 34 | 0 | 3.2 | 9.7 | 0.00 | 0.00 | 0.00 | 18 | 1019.1 |
| 20260906191547 | 34 | 0 | 1.6 | 9.7 | 0.00 | 0.00 | 0.00 | 16 | 1019.2 |
| 20260906191023 | 34 | 0 | 0.0 | 4.8 | 0.00 | 0.00 | 0.00 | 18 | 1019.3 |
| 20260906190524 | 34 | 0 | 1.6 | 12.9 | 0.00 | 0.00 | 0.00 | 21 | 1019.4 |
| 20260906190046 | 33 | 0 | 0.0 | 12.9 | 0.00 | 0.00 | 0.00 | 20 | 1019.5 |
| 20260906185523 | 33 | 55 | 3.2 | 12.9 | 0.00 | 0.00 | 0.00 | 18 | 1019.6 |
| 20260906185025 | 33 | 0 | 1.6 | 9.7 | 0.00 | 0.00 | 0.00 | 20 | 1019.7 |
| 20260906184544 | 33 | 0 | 1.6 | 9.7 | 0.00 | 0.00 | 0.00 | 18 | 1019.7 |
| 20260906184023 | 33 | 0 | 1.6 | 11.3 | 0.00 | 0.00 | 0.00 | 18 | 1019.8 |
| 20260906183524 | 33 | 333 | 1.6 | 11.3 | 0.00 | 0.00 | 0.00 | 19 | 1019.9 |
| 20260906183042 | 33 | 0 | 0.0 | 8.0 | 0.00 | 0.00 | 0.00 | 24 | 1019.9 |
| 20260906182522 | 33 | 0 | 0.0 | 8.0 | 0.00 | 0.00 | 0.00 | 20 | 1020.1 |
| 20260906182026 | 33 | 0 | 0.0 | 9.7 | 0.00 | 0.00 | 0.00 | 20 | 1020.1 |
| 20260906181543 | 33 | 65 | 1.6 | 9.7 | 0.00 | 0.00 | 0.00 | 24 | 1020.3 |
| 20260906181025 | 32 | 67 | 0.0 | 9.7 | 0.00 | 0.00 | 0.00 | 20 | 1020.4 |
| 20260906180524 | 32 | 335 | 1.6 | 6.4 | 0.00 | 0.00 | 0.00 | 23 | 1020.6 |
| 20260906180040 | 32 | 311 | 0.0 | 6.4 | 0.00 | 0.00 | 0.00 | 23 | 1020.6 |
| 20260906175524 | 32 | 0 | 0.0 | 9.7 | 0.00 | 0.00 | 0.00 | 29 | 1020.7 |
| 20260906175023 | 31 | 0 | 1.6 | 9.7 | 0.00 | 0.00 | 0.00 | 29 | 1020.7 |
| 20260906174544 | 31 | 0 | 0.0 | 9.7 | 0.00 | 0.00 | 0.00 | 27 | 1020.6 |
| 20260906174020 | 31 | 49 | 3.2 | 9.7 | 0.00 | 0.00 | 0.00 | 28 | 1020.7 |
| 20260906173523 | 31 | 0 | 1.6 | 8.0 | 0.00 | 0.00 | 0.00 | 28 | 1020.7 |
| 20260906173051 | 30 | 82 | 0.0 | 8.0 | 0.00 | 0.00 | 0.00 | 29 | 1020.9 |
| 20260906172518 | 30 | 324 | 1.6 | 8.0 | 0.00 | 0.00 | 0.00 | 31 | 1020.8 |
| 20260906172022 | 30 | 66 | 1.6 | 9.7 | 0.00 | 0.00 | 0.00 | 31 | 1021.1 |
| 20260906171541 | 30 | 0 | 3.2 | 9.7 | 0.00 | 0.00 | 0.00 | 30 | 1021.1 |
| 20260906171024 | 29 | 112 | 1.6 | 6.4 | 0.00 | 0.00 | 0.00 | 35 | 1021.1 |
| 20260906170524 | 28 | 61 | 0.0 | 6.4 | 0.00 | 0.00 | 0.00 | 33 | 1021.2 |
| 20260906170047 | 28 | 329 | 0.0 | 8.0 | 0.00 | 0.00 | 0.00 | 33 | 1021.3 |
| 20260906165524 | 28 | 41 | 1.6 | 12.9 | 0.00 | 0.00 | 0.00 | 33 | 1021.2 |
| 20260906165024 | 27 | 0 | 3.2 | 12.9 | 0.00 | 0.00 | 0.00 | 34 | 1021.4 |
| 20260906164544 | 27 | 0 | 0.0 | 8.0 | 0.00 | 0.00 | 0.00 | 36 | 1021.4 |
| 20260906164019 | 27 | 0 | 0.0 | 8.0 | 0.00 | 0.00 | 0.00 | 34 | 1021.4 |
| 20260906163519 | 27 | 51 | 0.0 | 4.8 | 0.00 | 0.00 | 0.00 | 35 | 1021.4 |
| 20260906163043 | 27 | 0 | 0.0 | 4.8 | 0.00 | 0.00 | 0.00 | 36 | 1021.4 |
| 20260906162521 | 27 | 37 | 0.0 | 4.8 | 0.00 | 0.00 | 0.00 | 36 | 1021.4 |
| 20260906162019 | 27 | 56 | 0.0 | 4.8 | 0.00 | 0.00 | 0.00 | 34 | 1021.4 |
| 20260906161540 | 27 | 339 | 1.6 | 8.0 | 0.00 | 0.00 | 0.00 | 35 | 1021.4 |
| 20260906161024 | 27 | 0 | 0.0 | 8.0 | 0.00 | 0.00 | 0.00 | 34 | 1021.5 |
| 20260906160524 | 27 | 0 | 1.6 | 8.0 | 0.00 | 0.00 | 0.00 | 32 | 1021.4 |
| 20260906160045 | 27 | 0 | 0.0 | 8.0 | 0.00 | 0.00 | 0.00 | 32 | 1021.4 |
| 20260906155524 | 27 | 0 | 1.6 | 9.7 | 0.00 | 0.00 | 0.00 | 31 | 1021.4 |
| 20260906155025 | 27 | 0 | 0.0 | 9.7 | 0.00 | 0.00 | 0.00 | 34 | 1021.3 |
| 20260906154549 | 27 | 17 | 1.6 | 8.0 | 0.00 | 0.00 | 0.00 | 32 | 1021.4 |
| 20260906154024 | 27 | 67 | 3.2 | 8.0 | 0.00 | 0.00 | 0.00 | 32 | 1021.4 |
| 20260906153527 | 26 | 67 | 1.6 | 6.4 | 0.00 | 0.00 | 0.00 | 33 | 1021.4 |
| 20260906153041 | 26 | 344 | 1.6 | 6.4 | 0.00 | 0.00 | 0.00 | 35 | 1021.3 |
| 20260906152521 | 26 | 309 | 1.6 | 6.4 | 0.00 | 0.00 | 0.00 | 34 | 1021.4 |
| 20260906152024 | 26 | 0 | 1.6 | 8.0 | 0.00 | 0.00 | 0.00 | 35 | 1021.4 |
| 20260906151546 | 26 | 0 | 1.6 | 8.0 | 0.00 | 0.00 | 0.00 | 35 | 1021.4 |
| 20260906151024 | 26 | 0 | 1.6 | 8.0 | 0.00 | 0.00 | 0.00 | 35 | 1021.4 |
| 20260906150524 | 26 | 316 | 3.2 | 14.5 | 0.00 | 0.00 | 0.00 | 36 | 1021.5 |
| 20260906150049 | 25 | 68 | 1.6 | 14.5 | 0.00 | 0.00 | 0.00 | 35 | 1021.4 |
| 20260906145520 | 25 | 0 | 1.6 | 6.4 | 0.00 | 0.00 | 0.00 | 36 | 1021.4 |
| 20260906145019 | 24 | 0 | 0.0 | 3.2 | 0.00 | 0.00 | 0.00 | 36 | 1021.5 |
| 20260906144543 | 23 | 0 | 0.0 | 3.2 | 0.00 | 0.00 | 0.00 | 37 | 1021.4 |
| 20260906144021 | 23 | 0 | 0.0 | 1.6 | 0.00 | 0.00 | 0.00 | 38 | 1021.3 |
| 20260906143520 | 23 | 0 | 0.0 | 1.6 | 0.00 | 0.00 | 0.00 | 39 | 1021.4 |
| 20260906143057 | 22 | 0 | 0.0 | 3.2 | 0.00 | 0.00 | 0.00 | 39 | 1021.4 |
| 20260906142522 | 22 | 0 | 0.0 | 3.2 | 0.00 | 0.00 | 0.00 | 41 | 1021.3 |
| 20260906142018 | 22 | 0 | 0.0 | 3.2 | 0.00 | 0.00 | 0.00 | 40 | 1021.3 |
| 20260906141541 | 21 | 0 | 0.0 | 4.8 | 0.00 | 0.00 | 0.00 | 41 | 1021.2 |
| 20260906141024 | 21 | 0 | 0.0 | 6.4 | 0.00 | 0.00 | 0.00 | 42 | 1021.2 |
| 20260906140528 | 21 | 0 | 0.0 | 6.4 | 0.00 | 0.00 | 0.00 | 42 | 1021.3 |
| 20260906140047 | 21 | 0 | 0.0 | 4.8 | 0.00 | 0.00 | 0.00 | 43 | 1021.2 |
| 20260906135525 | 21 | 0 | 0.0 | 4.8 | 0.00 | 0.00 | 0.00 | 43 | 1021.2 |
| 20260906135018 | 21 | 0 | 0.0 | 4.8 | 0.00 | 0.00 | 0.00 | 42 | 1021.2 |
| 20260906134550 | 21 | 0 | 0.0 | 3.2 | 0.00 | 0.00 | 0.00 | 44 | 1021.0 |
| 20260906134019 | 21 | 360 | 0.0 | 4.8 | 0.00 | 0.00 | 0.00 | 43 | 1020.9 |
| 20260906133519 | 21 | 0 | 0.0 | 4.8 | 0.00 | 0.00 | 0.00 | 47 | 1020.8 |
| 20260906133047 | 21 | 0 | 0.0 | 1.6 | 0.00 | 0.00 | 0.00 | 43 | 1020.8 |
| 20260906132518 | 21 | 0 | 0.0 | 1.6 | 0.00 | 0.00 | 0.00 | 41 | 1020.7 |
| 20260906132018 | 21 | 0 | 0.0 | 1.6 | 0.00 | 0.00 | 0.00 | 40 | 1020.6 |
| 20260906131554 | 20 | 0 | 0.0 | 1.6 | 0.00 | 0.00 | 0.00 | 40 | 1020.7 |
| 20260906131024 | 20 | 0 | 0.0 | 0.0 | 0.00 | 0.00 | 0.00 | 41 | 1020.6 |
| 20260906130524 | 20 | 0 | 0.0 | 0.0 | 0.00 | 0.00 | 0.00 | 42 | 1020.6 |
| 20260906130047 | 20 | 0 | 0.0 | 1.6 | 0.00 | 0.00 | 0.00 | 42 | 1020.7 |
| 20260906125519 | 20 | 0 | 0.0 | 3.2 | 0.00 | 0.00 | 0.00 | 41 | 1020.6 |
| 20260906125021 | 20 | 0 | 0.0 | 3.2 | 0.00 | 0.00 | 0.00 | 40 | 1020.6 |
| 20260906124542 | 20 | 0 | 0.0 | 3.2 | 0.00 | 0.00 | 0.00 | 41 | 1020.6 |
| 20260906124023 | 20 | 0 | 0.0 | 3.2 | 0.00 | 0.00 | 0.00 | 41 | 1020.5 |
| 20260906123518 | 20 | 0 | 0.0 | 3.2 | 0.00 | 0.00 | 0.00 | 42 | 1020.5 |
| 20260906123048 | 20 | 0 | 0.0 | 0.0 | 0.00 | 0.00 | 0.00 | 45 | 1020.5 |
| 20260906122527 | 20 | 0 | 0.0 | 0.0 | 0.00 | 0.00 | 0.00 | 46 | 1020.5 |
| 20260906122021 | 20 | 0 | 0.0 | 0.0 | 0.00 | 0.00 | 0.00 | 45 | 1020.6 |
| 20260906121547 | 20 | 0 | 0.0 | 0.0 | 0.00 | 0.00 | 0.00 | 46 | 1020.6 |
| 20260906121025 | 20 | 0 | 0.0 | 0.0 | 0.00 | 0.00 | 0.00 | 47 | 1020.5 |
| 20260906120524 | 20 | 0 | 0.0 | 0.0 | 0.00 | 0.00 | 0.00 | 45 | 1020.4 |
| 20260906120044 | 20 | 0 | 0.0 | 0.0 | 0.00 | 0.00 | 0.00 | 46 | 1020.5 |
| 20260906115521 | 20 | 0 | 0.0 | 0.0 | 0.00 | 0.00 | 0.00 | 46 | 1020.4 |
| 20260906115020 | 20 | 0 | 0.0 | 0.0 | 0.00 | 0.00 | 0.00 | 45 | 1020.5 |
| 20260906114542 | 20 | 0 | 0.0 | 0.0 | 0.00 | 0.00 | 0.00 | 45 | 1020.5 |
| 20260906114023 | 20 | 0 | 0.0 | 0.0 | 0.00 | 0.00 | 0.00 | 45 | 1020.3 |
| 20260906113518 | 20 | 0 | 0.0 | 0.0 | 0.00 | 0.00 | 0.00 | 45 | 1020.3 |
| 20260906113046 | 20 | 0 | 0.0 | 0.0 | 0.00 | 0.00 | 0.00 | 46 | 1020.3 |
| 20260906112519 | 20 | 0 | 0.0 | 0.0 | 0.00 | 0.00 | 0.00 | 46 | 1020.4 |
| 20260906112024 | 20 | 0 | 0.0 | 0.0 | 0.00 | 0.00 | 0.00 | 47 | 1020.5 |
| 20260906111545 | 21 | 0 | 0.0 | 0.0 | 0.00 | 0.00 | 0.00 | 47 | 1020.4 |
| 20260906111024 | 21 | 0 | 0.0 | 0.0 | 0.00 | 0.00 | 0.00 | 47 | 1020.4 |
| 20260906110525 | 21 | 0 | 0.0 | 0.0 | 0.00 | 0.00 | 0.00 | 45 | 1020.3 |
| 20260906110044 | 21 | 0 | 0.0 | 0.0 | 0.00 | 0.00 | 0.00 | 44 | 1020.3 |
| 20260906105525 | 21 | 0 | 0.0 | 0.0 | 0.00 | 0.00 | 0.00 | 45 | 1020.3 |
| 20260906105021 | 21 | 0 | 0.0 | 0.0 | 0.00 | 0.00 | 0.00 | 44 | 1020.4 |
| 20260906104542 | 21 | 0 | 0.0 | 0.0 | 0.00 | 0.00 | 0.00 | 45 | 1020.3 |
| 20260906104020 | 21 | 0 | 0.0 | 0.0 | 0.00 | 0.00 | 0.00 | 45 | 1020.2 |
| 20260906103519 | 21 | 0 | 0.0 | 0.0 | 0.00 | 0.00 | 0.00 | 43 | 1020.2 |
| 20260906103042 | 22 | 0 | 0.0 | 0.0 | 0.00 | 0.00 | 0.00 | 43 | 1020.3 |
| 20260906102520 | 22 | 0 | 0.0 | 0.0 | 0.00 | 0.00 | 0.00 | 43 | 1020.3 |
| 20260906102019 | 22 | 0 | 0.0 | 0.0 | 0.00 | 0.00 | 0.00 | 43 | 1020.2 |
| 20260906101544 | 22 | 0 | 0.0 | 0.0 | 0.00 | 0.00 | 0.00 | 43 | 1020.2 |
| 20260906101018 | 22 | 0 | 0.0 | 0.0 | 0.00 | 0.00 | 0.00 | 43 | 1020.0 |
| 20260906100524 | 22 | 0 | 0.0 | 0.0 | 0.00 | 0.00 | 0.00 | 42 | 1020.1 |
| 20260906100043 | 22 | 0 | 0.0 | 0.0 | 0.00 | 0.00 | 0.00 | 41 | 1020.1 |
| 20260906095519 | 22 | 0 | 0.0 | 0.0 | 0.00 | 0.00 | 0.00 | 41 | 1020.0 |
| 20260906095020 | 22 | 0 | 0.0 | 0.0 | 0.00 | 0.00 | 0.00 | 39 | 1020.0 |
| 20260906094541 | 23 | 0 | 0.0 | 0.0 | 0.00 | 0.00 | 0.00 | 39 | 1020.0 |
| 20260906094021 | 23 | 0 | 0.0 | 0.0 | 0.00 | 0.00 | 0.00 | 38 | 1020.0 |
| 20260906093518 | 23 | 0 | 0.0 | 0.0 | 0.00 | 0.00 | 0.00 | 38 | 1019.9 |
| 20260906093043 | 23 | 0 | 0.0 | 0.0 | 0.00 | 0.00 | 0.00 | 38 | 1019.8 |
| 20260906092520 | 23 | 0 | 0.0 | 0.0 | 0.00 | 0.00 | 0.00 | 38 | 1019.8 |
| 20260906092020 | 23 | 0 | 0.0 | 0.0 | 0.00 | 0.00 | 0.00 | 39 | 1019.8 |
| 20260906091539 | 23 | 0 | 0.0 | 0.0 | 0.00 | 0.00 | 0.00 | 38 | 1019.7 |
| 20260906091024 | 23 | 0 | 0.0 | 0.0 | 0.00 | 0.00 | 0.00 | 38 | 1019.6 |
| 20260906090519 | 23 | 0 | 0.0 | 0.0 | 0.00 | 0.00 | 0.00 | 39 | 1019.6 |
| 20260906090045 | 23 | 0 | 0.0 | 0.0 | 0.00 | 0.00 | 0.00 | 39 | 1019.6 |
| 20260906085521 | 23 | 0 | 0.0 | 0.0 | 0.00 | 0.00 | 0.00 | 38 | 1019.6 |
| 20260906085023 | 23 | 0 | 0.0 | 1.6 | 0.00 | 0.00 | 0.00 | 37 | 1019.6 |
| 20260906084541 | 23 | 0 | 0.0 | 1.6 | 0.00 | 0.00 | 0.00 | 37 | 1019.6 |
| 20260906084020 | 24 | 0 | 0.0 | 3.2 | 0.00 | 0.00 | 0.00 | 36 | 1019.6 |
| 20260906083521 | 24 | 0 | 0.0 | 4.8 | 0.00 | 0.00 | 0.00 | 37 | 1019.8 |
| 20260906083044 | 24 | 265 | 0.0 | 4.8 | 0.00 | 0.00 | 0.00 | 35 | 1019.7 |
| 20260906082520 | 24 | 0 | 1.6 | 4.8 | 0.00 | 0.00 | 0.00 | 35 | 1019.8 |
| 20260906082018 | 24 | 0 | 0.0 | 4.8 | 0.00 | 0.00 | 0.00 | 35 | 1019.8 |
| 20260906081547 | 24 | 0 | 0.0 | 4.8 | 0.00 | 0.00 | 0.00 | 35 | 1019.8 |
| 20260906081018 | 24 | 0 | 0.0 | 4.8 | 0.00 | 0.00 | 0.00 | 35 | 1019.8 |
| 20260906080521 | 24 | 0 | 0.0 | 4.8 | 0.00 | 0.00 | 0.00 | 35 | 1019.8 |
| 20260906080044 | 24 | 270 | 1.6 | 4.8 | 0.00 | 0.00 | 0.00 | 35 | 1019.9 |
| 20260906075523 | 24 | 0 | 0.0 | 4.8 | 0.00 | 0.00 | 0.00 | 35 | 1020.0 |
| 20260906075020 | 24 | 0 | 0.0 | 4.8 | 0.00 | 0.00 | 0.00 | 35 | 1020.0 |
| 20260906074542 | 24 | 245 | 0.0 | 4.8 | 0.00 | 0.00 | 0.00 | 36 | 1020.1 |
| 20260906074021 | 23 | 0 | 0.0 | 4.8 | 0.00 | 0.00 | 0.00 | 36 | 1020.1 |
| 20260906073520 | 23 | 360 | 0.0 | 4.8 | 0.00 | 0.00 | 0.00 | 36 | 1020.1 |
| 20260906073041 | 23 | 0 | 0.0 | 1.6 | 0.00 | 0.00 | 0.00 | 38 | 1020.1 |
| 20260906072518 | 23 | 0 | 0.0 | 3.2 | 0.00 | 0.00 | 0.00 | 37 | 1020.1 |
| 20260906072018 | 23 | 0 | 0.0 | 3.2 | 0.00 | 0.00 | 0.00 | 37 | 1020.1 |
| 20260906071552 | 23 | 0 | 0.0 | 3.2 | 0.00 | 0.00 | 0.00 | 38 | 1020.1 |
| 20260906071018 | 23 | 0 | 0.0 | 3.2 | 0.00 | 0.00 | 0.00 | 38 | 1020.1 |
| 20260906070518 | 23 | 186 | 0.0 | 1.6 | 0.00 | 0.00 | 0.00 | 38 | 1020.1 |
| 20260906070044 | 22 | 0 | 0.0 | 1.6 | 0.00 | 0.00 | 0.00 | 39 | 1020.2 |
| 20260906065521 | 23 | 0 | 0.0 | 0.0 | 0.00 | 0.00 | 0.00 | 39 | 1020.2 |
| 20260906065021 | 23 | 0 | 0.0 | 0.0 | 0.00 | 0.00 | 0.00 | 39 | 1020.3 |
| 20260906064543 | 23 | 0 | 0.0 | 0.0 | 0.00 | 0.00 | 0.00 | 40 | 1020.3 |
| 20260906064021 | 23 | 0 | 0.0 | 0.0 | 0.00 | 0.00 | 0.00 | 39 | 1020.2 |
| 20260906063519 | 23 | 0 | 0.0 | 0.0 | 0.00 | 0.00 | 0.00 | 38 | 1020.3 |
| 20260906063043 | 24 | 0 | 0.0 | 3.2 | 0.00 | 0.00 | 0.00 | 37 | 1020.2 |
| 20260906062518 | 24 | 0 | 0.0 | 3.2 | 0.00 | 0.00 | 0.00 | 36 | 1020.1 |
| 20260906062018 | 23 | 0 | 0.0 | 3.2 | 0.00 | 0.00 | 0.00 | 36 | 1020.0 |
| 20260906061546 | 23 | 0 | 0.0 | 0.0 | 0.00 | 0.00 | 0.00 | 37 | 1020.1 |
| 20260906061019 | 23 | 0 | 0.0 | 3.2 | 0.00 | 0.00 | 0.00 | 38 | 1020.0 |
| 20260906060520 | 24 | 0 | 0.0 | 3.2 | 0.00 | 0.00 | 0.00 | 37 | 1020.0 |
| 20260906060039 | 24 | 0 | 0.0 | 1.6 | 0.00 | 0.00 | 0.00 | 37 | 1019.9 |
| 20260906055524 | 24 | 0 | 0.0 | 1.6 | 0.00 | 0.00 | 0.00 | 38 | 1019.9 |
| 20260906055022 | 24 | 0 | 0.0 | 1.6 | 0.00 | 0.00 | 0.00 | 36 | 1019.7 |
| 20260906054546 | 24 | 0 | 0.0 | 0.0 | 0.00 | 0.00 | 0.00 | 35 | 1019.8 |
| 20260906054019 | 24 | 0 | 0.0 | 0.0 | 0.00 | 0.00 | 0.00 | 35 | 1019.7 |
| 20260906053520 | 24 | 0 | 0.0 | 0.0 | 0.00 | 0.00 | 0.00 | 35 | 1019.6 |
| 20260906053042 | 25 | 0 | 0.0 | 0.0 | 0.00 | 0.00 | 0.00 | 35 | 1019.7 |
| 20260906052518 | 25 | 0 | 0.0 | 0.0 | 0.00 | 0.00 | 0.00 | 35 | 1019.7 |
| 20260906052021 | 25 | 0 | 0.0 | 0.0 | 0.00 | 0.00 | 0.00 | 35 | 1019.7 |
| 20260906051547 | 25 | 0 | 0.0 | 0.0 | 0.00 | 0.00 | 0.00 | 34 | 1019.6 |
| 20260906051018 | 25 | 0 | 0.0 | 3.2 | 0.00 | 0.00 | 0.00 | 34 | 1019.4 |
| 20260906050517 | 25 | 0 | 0.0 | 3.2 | 0.00 | 0.00 | 0.00 | 33 | 1019.5 |
| 20260906050110 | 25 | 0 | 0.0 | 1.6 | 0.00 | 0.00 | 0.00 | 33 | 1019.5 |
| 20260906045525 | 25 | 0 | 0.0 | 3.2 | 0.00 | 0.00 | 0.00 | 32 | 1019.5 |
| 20260906045021 | 25 | 0 | 0.0 | 3.2 | 0.00 | 0.00 | 0.00 | 33 | 1019.5 |
| 20260906044542 | 26 | 333 | 0.0 | 3.2 | 0.00 | 0.00 | 0.00 | 34 | 1019.6 |
| 20260906044021 | 26 | 0 | 0.0 | 1.6 | 0.00 | 0.00 | 0.00 | 32 | 1019.5 |
| 20260906043524 | 26 | 0 | 0.0 | 3.2 | 0.00 | 0.00 | 0.00 | 33 | 1019.6 |
| 20260906043039 | 26 | 0 | 0.0 | 3.2 | 0.00 | 0.00 | 0.00 | 31 | 1019.4 |
| 20260906042520 | 26 | 0 | 0.0 | 4.8 | 0.00 | 0.00 | 0.00 | 31 | 1019.4 |
| 20260906042024 | 26 | 0 | 0.0 | 4.8 | 0.00 | 0.00 | 0.00 | 31 | 1019.4 |
| 20260906041545 | 26 | 0 | 0.0 | 4.8 | 0.00 | 0.00 | 0.00 | 31 | 1019.3 |
| 20260906041025 | 26 | 248 | 0.0 | 4.8 | 0.00 | 0.00 | 0.00 | 30 | 1019.4 |
| 20260906040526 | 26 | 0 | 0.0 | 6.4 | 0.00 | 0.00 | 0.00 | 30 | 1019.3 |
| 20260906040048 | 26 | 0 | 0.0 | 6.4 | 0.00 | 0.00 | 0.00 | 30 | 1019.4 |
| 20260906035520 | 26 | 268 | 1.6 | 11.3 | 0.00 | 0.00 | 0.00 | 30 | 1019.4 |
| 20260906035019 | 27 | 258 | 1.6 | 11.3 | 0.00 | 0.00 | 0.00 | 30 | 1019.5 |
| 20260906034543 | 27 | 273 | 3.2 | 9.7 | 0.00 | 0.00 | 0.00 | 30 | 1019.4 |
| 20260906034020 | 27 | 0 | 1.6 | 9.7 | 0.00 | 0.00 | 0.00 | 30 | 1019.4 |
| 20260906033518 | 27 | 233 | 1.6 | 9.7 | 0.00 | 0.00 | 0.00 | 30 | 1019.3 |
| 20260906033040 | 27 | 0 | 1.6 | 9.7 | 0.00 | 0.00 | 0.00 | 30 | 1019.3 |
| 20260906032520 | 27 | 272 | 1.6 | 8.0 | 0.00 | 0.00 | 0.00 | 29 | 1019.2 |
| 20260906032025 | 27 | 298 | 1.6 | 11.3 | 0.00 | 0.00 | 0.00 | 29 | 1019.2 |
| 20260906031545 | 27 | 257 | 1.6 | 11.3 | 0.00 | 0.00 | 0.00 | 29 | 1019.1 |
| 20260906031021 | 27 | 228 | 1.6 | 11.3 | 0.00 | 0.00 | 0.00 | 29 | 1018.9 |
| 20260906030521 | 28 | 0 | 0.0 | 11.3 | 0.00 | 0.00 | 0.00 | 29 | 1018.8 |
| 20260906030043 | 28 | 0 | 0.0 | 9.7 | 0.00 | 0.00 | 0.00 | 29 | 1018.7 |
| 20260906025518 | 28 | 0 | 3.2 | 11.3 | 0.00 | 0.00 | 0.00 | 28 | 1018.6 |
| 20260906025018 | 28 | 261 | 1.6 | 11.3 | 0.00 | 0.00 | 0.00 | 28 | 1018.6 |
| 20260906024542 | 28 | 286 | 1.6 | 9.7 | 0.00 | 0.00 | 0.00 | 28 | 1018.5 |
| 20260906024020 | 28 | 263 | 3.2 | 12.9 | 0.00 | 0.00 | 0.00 | 28 | 1018.5 |
| 20260906023520 | 28 | 259 | 1.6 | 12.9 | 0.00 | 0.00 | 0.00 | 29 | 1018.4 |
| 20260906023044 | 28 | 0 | 1.6 | 11.3 | 0.00 | 0.00 | 0.00 | 29 | 1018.4 |
| 20260906022519 | 28 | 278 | 1.6 | 8.0 | 0.00 | 0.00 | 0.00 | 29 | 1018.3 |
| 20260906022020 | 28 | 267 | 3.2 | 8.0 | 0.00 | 0.00 | 0.00 | 29 | 1018.3 |
| 20260906021550 | 29 | 0 | 0.0 | 4.8 | 0.00 | 0.00 | 0.00 | 30 | 1018.3 |
| 20260906021018 | 29 | 0 | 0.0 | 6.4 | 0.00 | 0.00 | 0.00 | 30 | 1018.3 |
| 20260906020521 | 29 | 261 | 1.6 | 6.4 | 0.00 | 0.00 | 0.00 | 31 | 1018.2 |
| 20260906020042 | 29 | 242 | 1.6 | 6.4 | 0.00 | 0.00 | 0.00 | 31 | 1018.3 |
| 20260906015520 | 30 | 0 | 0.0 | 0.0 | 0.00 | 0.00 | 0.00 | 31 | 1018.1 |
| 20260906015025 | 30 | 0 | 0.0 | 0.0 | 0.00 | 0.00 | 0.00 | 32 | 1018.1 |
| 20260906014543 | 30 | 0 | 0.0 | 1.6 | 0.00 | 0.00 | 0.00 | 30 | 1018.1 |
| 20260906014024 | 30 | 0 | 0.0 | 3.2 | 0.00 | 0.00 | 0.00 | 30 | 1018.0 |
| 20260906013519 | 30 | 0 | 0.0 | 4.8 | 0.00 | 0.00 | 0.00 | 31 | 1018.0 |
| 20260906013044 | 30 | 243 | 0.0 | 4.8 | 0.00 | 0.00 | 0.00 | 30 | 1018.0 |
| 20260906012519 | 30 | 0 | 0.0 | 3.2 | 0.00 | 0.00 | 0.00 | 30 | 1018.0 |
| 20260906012018 | 30 | 0 | 0.0 | 4.8 | 0.00 | 0.00 | 0.00 | 30 | 1018.1 |
| 20260906011542 | 31 | 0 | 0.0 | 4.8 | 0.00 | 0.00 | 0.00 | 29 | 1018.0 |
| 20260906011021 | 31 | 269 | 0.0 | 3.2 | 0.00 | 0.00 | 0.00 | 29 | 1018.1 |
| 20260906010520 | 31 | 0 | 0.0 | 6.4 | 0.00 | 0.00 | 0.00 | 29 | 1017.9 |
| 20260906010050 | 31 | 0 | 0.0 | 12.9 | 0.00 | 0.00 | 0.00 | 28 | 1018.0 |
| 20260906005524 | 31 | 0 | 1.6 | 12.9 | 0.00 | 0.00 | 0.00 | 27 | 1018.0 |
| 20260906005020 | 31 | 251 | 1.6 | 6.4 | 0.00 | 0.00 | 0.00 | 28 | 1018.0 |
| 20260906004542 | 32 | 0 | 0.0 | 12.9 | 0.00 | 0.00 | 0.00 | 28 | 1018.0 |
| 20260906004025 | 32 | 247 | 3.2 | 12.9 | 0.00 | 0.00 | 0.00 | 27 | 1018.0 |
| 20260906003526 | 32 | 251 | 1.6 | 9.7 | 0.00 | 0.00 | 0.00 | 27 | 1018.0 |
| 20260906003045 | 32 | 34 | 1.6 | 9.7 | 0.00 | 0.00 | 0.00 | 27 | 1018.0 |
| 20260906002525 | 32 | 34 | 1.6 | 11.3 | 0.00 | 0.00 | 0.00 | 27 | 1018.1 |
| 20260906002020 | 32 | 262 | 1.6 | 12.9 | 0.00 | 0.00 | 0.00 | 27 | 1018.0 |
| 20260906001542 | 32 | 0 | 1.6 | 12.9 | 0.00 | 0.00 | 0.00 | 26 | 1017.9 |
| 20260906001018 | 33 | 259 | 1.6 | 4.8 | 0.00 | 0.00 | 0.00 | 26 | 1017.9 |
| 20260906000518 | 33 | 0 | 0.0 | 16.1 | 0.00 | 0.00 | 0.00 | 27 | 1017.9 |
| 20260906000041 | 32 | 0 | 1.6 | 16.1 | 0.00 | 0.00 | 0.00 | 27 | 1017.9 |
| 20260905235520 | 32 | 252 | 3.2 | 16.1 | 0.00 | 0.00 | 0.00 | 27 | 1017.9 |
| 20260905235018 | 33 | 291 | 1.6 | 6.4 | 0.00 | 0.00 | 0.00 | 26 | 1017.9 |
| 20260905234540 | 33 | 275 | 1.6 | 6.4 | 0.00 | 0.00 | 0.00 | 27 | 1018.0 |
| 20260905234020 | 33 | 243 | 1.6 | 6.4 | 0.00 | 0.00 | 0.00 | 26 | 1017.9 |